Content
SEND FEEDBACK

Daily
Averages
Monthly
Summary
United States of America

ORANGE, TEXAS


Home > North America > United States > Texas
Elevation: 1 foot     Latitude: 30 07N     Longitude: 093 47W

WEATHER
 
SELECT A DAY
Number of Records: 108,044;   Date Range: 8/25/05 - 7/24/14
 
SHARE

PRINT THIS DATA

[ ← Previous Day ]
WEATHER ALMANAC - OCTOBER 25, 2013
[ Next Day → ]
[ °C ]   °F
Weather ElementAverageHighLow
Temperature62.1 °F73 °F (3:55 pm)54.7 °F (11:55 pm)
Dewpoint51.2 °F58.8 °F (2:15 am)46 °F (10:55 am)
Humidity70.1 %99 % (12:35 am)45 % (1:35 pm)
Barometer30.31 in30.40 in (10:35 am)30.24 in (12:35 am)
Wind Speed7.5 mph18.4 mph (9:35 am)
Wind Gust20.7 mph (10:35 am)
Weather ElementAverage
Visibility9.5 mi
Wind DirectionNE (44.5 °)

Weather ElementTotal
Precipitation---
Heating Degree Days1.2 (Base 65)
Growing Degree Days13.9 (Base 50)
Averaged from 71 records on October 25, 2013
WEATHER CONDITIONS BREAKOUT
WIND DIRECTION BREAKOUT
WEATHER BY HOUR - OCTOBER 25, 2013
[ °C ]   °F
Local TimeTemperatureDewpointHumidityBarometerVisibilityWind DirectionWind SpeedGust SpeedPrecipitationEventsConditions
12:35 AM57.6 °F57.2 °F99 %30.24 in1.8 miCalmMist
12:55 AM57.2 °F56.7 °F98 %30.24 in4.0 miCalmClear
1:15 AM56.5 °F56.1 °F99 %30.24 in5.0 miCalmClear
1:35 AM56.3 °F55.8 °F98 %30.24 in1.5 miCalmMist
1:55 AM56.3 °F55.8 °F98 %30.25 in3.0 miNorth (350°)6.9 mphClear
2:15 AM59.2 °F58.8 °F99 %30.26 in10.0 miCalmClear
2:35 AM58.8 °F58.3 °F98 %30.26 in10.0 miCalmClear
2:55 AM57.6 °F57.0 °F98 %30.26 in7.0 miNNW (340°)3.5 mphClear
3:15 AM58.8 °F58.1 °F97 %30.26 in10.0 miNorth (360°)4.6 mphClear
3:35 AM59.5 °F57.2 °F92 %30.26 in10.0 miNNE (30°)6.9 mphClear
3:55 AM59.7 °F56.3 °F88 %30.26 in10.0 miNNE (20°)5.8 mphClear
4:15 AM59.7 °F56.5 °F89 %30.27 in10.0 miNNE (20°)4.6 mphClear
4:35 AM59.4 °F56.3 °F90 %30.27 in10.0 miNNE (30°)9.2 mphClear
4:55 AM59.0 °F55.4 °F88 %30.28 in10.0 miNNE (20°)6.9 mphClear
5:15 AM58.5 °F54.7 °F87 %30.29 in10.0 miNNE (20°)8.1 mphClear
5:35 AM58.1 °F54.1 °F87 %30.30 in10.0 miNNE (20°)6.9 mphClear
5:55 AM57.7 °F53.6 °F86 %30.30 in10.0 miNNE (20°)9.2 mphClear
6:15 AM57.2 °F52.9 °F85 %30.31 in10.0 miNNE (20°)8.1 mphClear
6:35 AM56.7 °F52.3 °F85 %30.32 in10.0 miNNE (20°)9.2 mphClear
6:55 AM56.3 °F52.0 °F85 %30.33 in10.0 miNNE (20°)9.2 mphClear
7:15 AM55.8 °F51.6 °F86 %30.34 in10.0 miNNE (20°)8.1 mphClear
7:35 AM55.4 °F51.1 °F85 %30.34 in10.0 miNNE (20°)9.2 mphClear
7:55 AM55.4 °F50.5 °F84 %30.35 in10.0 miNNE (30°)10.4 mph16.1 mphClear
8:15 AM55.4 °F50.0 °F82 %30.35 in10.0 miNNE (30°)10.4 mph18.4 mphClear
8:35 AM55.8 °F49.8 °F80 %30.36 in10.0 miNNE (30°)12.7 mphClear
8:55 AM56.7 °F48.9 °F75 %30.37 in10.0 miNE (40°)12.7 mph17.3 mphClear
9:15 AM57.4 °F48.4 °F72 %30.38 in10.0 miNNE (30°)16.1 mph19.6 mphClear
9:35 AM58.5 °F47.7 °F67 %30.38 in10.0 miNE (40°)18.4 mphClear
9:55 AM59.7 °F47.5 °F64 %30.39 in10.0 miNE (40°)16.1 mph19.6 mphClear
10:15 AM60.8 °F47.3 °F61 %30.39 in10.0 miNNE (30°)15.0 mphClear
10:35 AM61.9 °F46.4 °F57 %30.40 in10.0 miNE (40°)13.8 mph20.7 mphClear
10:55 AM62.6 °F46.0 °F55 %30.40 in10.0 miNNE (30°)12.7 mph18.4 mphClear
11:15 AM64.0 °F46.0 °F52 %30.39 in10.0 miNNE (30°)12.7 mphClear
11:35 AM64.9 °F46.0 °F50 %30.39 in10.0 miNE (50°)10.4 mphClear
11:55 AM65.7 °F46.4 °F50 %30.38 in10.0 miNE (40°)11.5 mphClear
12:15 PM66.9 °F46.6 °F48 %30.38 in10.0 miNE (40°)11.5 mphClear
12:35 PM68.2 °F47.3 °F47 %30.37 in10.0 miNE (40°)11.5 mph16.1 mphClear
12:55 PM68.4 °F47.1 °F47 %30.36 in10.0 miNE (40°)10.4 mph16.1 mphClear
1:15 PM69.8 °F47.8 °F46 %30.35 in10.0 miNE (50°)8.1 mphClear
1:35 PM70.5 °F48.2 °F45 %30.34 in10.0 miNE (50°)9.2 mph17.3 mphClear
1:55 PM70.7 °F48.4 °F45 %30.33 in10.0 miNNE (30°)8.1 mphClear
2:15 PM71.6 °F49.3 °F45 %30.33 in10.0 miNE (40°)10.4 mphClear
2:35 PM72.0 °F49.6 °F45 %30.32 in10.0 miNE (40°)5.8 mph9.2 mphClear
2:55 PM71.8 °F49.6 °F45 %30.31 in10.0 miNorth (10°)6.9 mphClear
3:15 PM72.3 °F49.8 °F45 %30.31 in10.0 miNNE (20°)5.8 mphClear
3:35 PM72.9 °F50.2 °F45 %30.30 in10.0 miENE (60°)5.8 mphClear
3:55 PM73.0 °F50.5 °F45 %30.30 in10.0 miENE (70°)8.1 mphClear
4:15 PM72.9 °F50.9 °F46 %30.29 in10.0 miNE (40°)3.5 mphClear
4:35 PM73.0 °F51.6 °F47 %30.29 in10.0 miNE (50°)6.9 mphClear
4:55 PM72.5 °F51.3 °F47 %30.29 in10.0 miNE (50°)8.1 mphClear
5:15 PM71.6 °F50.9 °F48 %30.29 in10.0 miNE (40°)9.2 mphClear
5:35 PM71.1 °F51.4 °F50 %30.28 in10.0 miNNE (30°)9.2 mphClear
5:55 PM70.2 °F51.3 °F51 %30.28 in10.0 miNE (40°)8.1 mphClear
6:15 PM68.5 °F52.3 °F56 %30.29 in10.0 miNE (40°)8.1 mphClear
6:35 PM65.8 °F52.5 °F62 %30.29 in10.0 miNNE (30°)5.8 mphClear
6:55 PM64.4 °F52.2 °F64 %30.29 in10.0 miNNE (20°)5.8 mphClear
7:15 PM64.0 °F52.0 °F65 %30.29 in10.0 miNNE (20°)5.8 mphClear
7:35 PM63.0 °F51.8 °F67 %30.30 in10.0 miNNE (20°)5.8 mphClear
7:55 PM62.2 °F51.3 °F67 %30.30 in10.0 miNNE (20°)5.8 mphClear
8:15 PM60.4 °F50.9 °F71 %30.31 in10.0 miNNE (30°)4.6 mphClear
8:35 PM60.1 °F50.9 °F72 %30.31 in10.0 miNNE (30°)5.8 mphClear
8:55 PM59.0 °F50.9 °F74 %30.32 in10.0 miNNE (30°)5.8 mphClear
9:15 PM59.0 °F50.4 °F73 %30.32 in10.0 miNE (40°)5.8 mphClear
9:35 PM58.6 °F50.0 °F73 %30.32 in10.0 miNE (40°)6.9 mphClear
9:55 PM58.1 °F49.6 °F73 %30.32 in10.0 miNE (40°)5.8 mphClear
10:15 PM58.1 °F49.3 °F72 %30.32 in10.0 miNNE (20°)4.6 mphClear
10:35 PM56.3 °F49.1 °F77 %30.32 in10.0 miNE (40°)5.8 mphClear
10:55 PM55.6 °F48.7 °F78 %30.32 in10.0 miENE (60°)4.6 mphClear
11:15 PM55.9 °F48.2 °F75 %30.32 in10.0 miNE (50°)4.6 mphClear
11:35 PM55.8 °F47.8 °F75 %30.31 in10.0 miNE (50°)4.6 mphClear
11:55 PM54.7 °F47.7 °F77 %30.31 in10.0 miNE (50°)3.5 mphClear
Hourly data recorded from KORG, located miles away from Orange, Texas







STORIES FROM OUR PARTNERS